QPF
0.02 0.02 0.03 0.02 0.02 0.02 0.02 0.02 0.02 0.04 0.04 0.05 0.05 0.05 0.06 0.06 0.06 0.10 0.13 0.13 0.09 0.07 0.05 0.04 0.04 0.03 0.03 0.04 0.05 0.05 0.04 0.03 0.01 0.01 0.01 0.01 0.02 0.02 0.03 0.04 0.04 0.05 0.05 0.05
0.03 0.03 0.02 0.01 0.01 0.02 0.02 0.02 0.03 0.03 0.05 0.05 0.05 0.06 0.07 0.07 0.08 0.11 0.11 0.09 0.09 0.09 0.06 0.04 0.03 0.03 0.03 0.03 0.04 0.04 0.03 0.02 0.02 0.01 0.01 0.01 0.01 0.02 0.02 0.03 0.04 0.05 0.04 0.03
0.07 0.05 0.04 0.04 0.04 0.04 0.03 0.03 0.04 0.05 0.04 0.04 0.04 0.05 0.05 0.06 0.06 0.07 0.06 0.08 0.09 0.06 0.05 0.05 0.04 0.02 0.02 0.02 0.02 0.02 0.02 0.02 0.02 0.02 0.02 0.01 0.01 0.01 0.01 0.02 0.03 0.03 0.03 0.03
0.04 0.05 0.08 0.07 0.05 0.04 0.04 0.04 0.04 0.04 0.03 0.03 0.04 0.05 0.06 0.07 0.06 0.05 0.06 0.05 0.05 0.05 0.04 0.05 0.05 0.04 0.04 0.03 0.02 0.02 0.02 0.02 0.02 0.02 0.02 0.02 0.02 0.01 0.02 0.02 0.03 0.03 0.03 0.02
0.03 0.05 0.10 0.08 0.04 0.03 0.03 0.03 0.03 0.03 0.03 0.03 0.03 0.04 0.06 0.08 0.08 0.07 0.05 0.04 0.05 0.05 0.04 0.03 0.04 0.04 0.04 0.04 0.02 0.02 0.02 0.02 0.02 0.02 0.02 0.02 0.02 0.01 0.01 0.01 0.02 0.02 0.02 0.03
0.04 0.05 0.07 0.08 0.04 0.03 0.03 0.04 0.03 0.03 0.04 0.04 0.04 0.04 0.06 0.08 0.09 0.08 0.06 0.04 0.04 0.05 0.05 0.03 0.03 0.04 0.04 0.03 0.02 0.02 0.02 0.02 0.02 0.02 0.02 0.02 0.02 0.02 0.01 0.01 0.01 0.01 0.02 0.02
0.04 0.05 0.04 0.04 0.04 0.02 0.04 0.05 0.04 0.04 0.04 0.06 0.06 0.06 0.06 0.09 0.06 0.06 0.06 0.05 0.04 0.03 0.03 0.03 0.03 0.04 0.04 0.04 0.03 0.03 0.03 0.02 0.01 0.01 0.01 0.01 0.01 0.01 0.02 0.02 0.02 0.03 0.03 0.01
0.04 0.04 0.05 0.03 0.04 0.05 0.05 0.05 0.05 0.05 0.05 0.06 0.06 0.05 0.07 0.09 0.06 0.05 0.06 0.07 0.06 0.05 0.03 0.03 0.03 0.03 0.03 0.03 0.04 0.04 0.03 0.03 0.02 0.01 0.01 0.01 0.01 0.01 0.02 0.02 0.02 0.03 0.03 0.03
0.05 0.07 0.07 0.05 0.06 0.07 0.05 0.05 0.06 0.09 0.07 0.05 0.03 0.04 0.06 0.08 0.06 0.05 0.07 0.07 0.08 0.07 0.05 0.04 0.03 0.02 0.03 0.03 0.04 0.04 0.04 0.03 0.03 0.02 0.02 0.02 0.02 0.02 0.02 0.02 0.02 0.02 0.02 0.02
0.04 0.05 0.05 0.05 0.05 0.06 0.06 0.05 0.06 0.06 0.06 0.04 0.02 0.02 0.03 0.04 0.04 0.05 0.10 0.09 0.09 0.08 0.06 0.07 0.05 0.03 0.02 0.03 0.04 0.05 0.04 0.03 0.03 0.03 0.03 0.03 0.03 0.03 0.03 0.03 0.03 0.02 0.02 0.02
0.03 0.03 0.05 0.04 0.02 0.02 0.03 0.05 0.07 0.06 0.06 0.03 0.02 0.02 0.02 0.03 0.02 0.02 0.04 0.06 0.08 0.09 0.08 0.06 0.05 0.03 0.02 0.02 0.04 0.06 0.05 0.03 0.02 0.03 0.03 0.04 0.04 0.04 0.04 0.03 0.03 0.02 0.02 0.03
0.03 0.04 0.08 0.05 0.02 0.02 0.02 0.04 0.07 0.07 0.04 0.02 0.01 0.01 0.01 0.02 0.03 0.03 0.03 0.05 0.07 0.06 0.06 0.06 0.06 0.04 0.03 0.02 0.02 0.05 0.07 0.05 0.02 0.02 0.02 0.03 0.02 0.03 0.04 0.03 0.03 0.03 0.03 0.03
0.05 0.05 0.06 0.04 0.02 0.01 0.01 0.03 0.05 0.06 0.04 0.02 0.01 0.01 0.00 0.01 0.03 0.06 0.07 0.04 0.03 0.03 0.04 0.06 0.06 0.06 0.04 0.02 0.02 0.04 0.07 0.07 0.04 0.02 0.02 0.03 0.03 0.03 0.02 0.02 0.02 0.01 0.01 0.01
0.04 0.05 0.04 0.02 0.01 0.01 0.01 0.02 0.04 0.04 0.03 0.02 0.01 0.01 0.01 0.02 0.04 0.06 0.05 0.04 0.03 0.03 0.04 0.04 0.05 0.05 0.05 0.04 0.03 0.03 0.06 0.06 0.06 0.03 0.03 0.03 0.03 0.04 0.03 0.03 0.02 0.02 0.01 0.01
0.02 0.03 0.02 0.01 0.01 0.01 0.01 0.02 0.03 0.03 0.02 0.03 0.04 0.03 0.03 0.03 0.04 0.03 0.03 0.03 0.03 0.03 0.04 0.04 0.04 0.05 0.05 0.05 0.04 0.04 0.05 0.06 0.05 0.04 0.02 0.02 0.02 0.02 0.03 0.04 0.04 0.03 0.03 0.03
0.02 0.01 0.02 0.01 0.01 0.02 0.01 0.01 0.02 0.02 0.02 0.02 0.04 0.05 0.06 0.04 0.04 0.04 0.03 0.03 0.03 0.03 0.03 0.03 0.03 0.04 0.04 0.04 0.06 0.06 0.06 0.07 0.06 0.04 0.02 0.02 0.02 0.02 0.03 0.04 0.06 0.06 0.06 0.05
0.03 0.01 0.02 0.02 0.02 0.02 0.02 0.02 0.02 0.02 0.01 0.01 0.02 0.02 0.04 0.05 0.05 0.04 0.03 0.02 0.03 0.03 0.03 0.03 0.04 0.03 0.04 0.03 0.03 0.04 0.05 0.06 0.08 0.08 0.06 0.05 0.04 0.03 0.03 0.03 0.04 0.05 0.06 0.07
0.01 0.02 0.02 0.02 0.02 0.03 0.04 0.03 0.02 0.01 0.01 0.01 0.01 0.02 0.02 0.03 0.04 0.04 0.03 0.03 0.03 0.02 0.03 0.04 0.03 0.04 0.04 0.04 0.04 0.04 0.04 0.04 0.06 0.07 0.07 0.07 0.07 0.07 0.06 0.05 0.04 0.04 0.04 0.05
0.01 0.01 0.02 0.02 0.03 0.04 0.05 0.04 0.03 0.02 0.02 0.02 0.02 0.02 0.02 0.03 0.03 0.03 0.03 0.03 0.03 0.03 0.04 0.05 0.04 0.04 0.04 0.04 0.05 0.05 0.05 0.04 0.03 0.05 0.05 0.04 0.04 0.04 0.05 0.05 0.05 0.04 0.04 0.04
0.01 0.01 0.01 0.01 0.02 0.04 0.06 0.05 0.03 0.03 0.03 0.04 0.04 0.03 0.03 0.03 0.03 0.02 0.03 0.03 0.03 0.03 0.03 0.05 0.06 0.04 0.04 0.05 0.05 0.04 0.04 0.05 0.03 0.03 0.03 0.03 0.04 0.05 0.04 0.03 0.03 0.04 0.03 0.03
0.01 0.01 0.01 0.01 0.01 0.02 0.04 0.04 0.03 0.03 0.04 0.04 0.04 0.04 0.03 0.03 0.04 0.04 0.04 0.04 0.03 0.03 0.03 0.05 0.06 0.05 0.04 0.04 0.05 0.04 0.03 0.04 0.04 0.03 0.03 0.04 0.04 0.04 0.04 0.04 0.03 0.03 0.03 0.03
0.02 0.01 0.01 0.01 0.01 0.02 0.02 0.03 0.03 0.03 0.03 0.04 0.04 0.03 0.02 0.02 0.03 0.04 0.05 0.04 0.03 0.03 0.03 0.03 0.06 0.05 0.03 0.04 0.05 0.04 0.03 0.03 0.04 0.04 0.03 0.04 0.04 0.03 0.03 0.02 0.02 0.02 0.02 0.02
0.01 0.01 0.01 0.02 0.03 0.02 0.02 0.02 0.02 0.02 0.02 0.03 0.04 0.05 0.04 0.03 0.04 0.05 0.05 0.03 0.03 0.02 0.02 0.03 0.05 0.06 0.04 0.05 0.05 0.04 0.03 0.03 0.03 0.04 0.04 0.04 0.03 0.03 0.02 0.02 0.01 0.01 0.02 0.02
0.01 0.01 0.01 0.02 0.01 0.01 0.02 0.01 0.01 0.02 0.02 0.02 0.03 0.05 0.05 0.04 0.04 0.04 0.05 0.06 0.08 0.06 0.03 0.03 0.05 0.06 0.04 0.05 0.05 0.05 0.03 0.03 0.03 0.04 0.04 0.03 0.03 0.03 0.03 0.02 0.02 0.02 0.02 0.03
0.01 0.01 0.01 0.01 0.01 0.01 0.01 0.01 0.02 0.02 0.02 0.02 0.02 0.03 0.03 0.03 0.03 0.03 0.04 0.05 0.05 0.04 0.03 0.03 0.05 0.06 0.05 0.04 0.04 0.03 0.03 0.02 0.02 0.02 0.02 0.03 0.03 0.02 0.02 0.01 0.02 0.02 0.02 0.03
0.01 0.01 0.01 0.01 0.01 0.01 0.01 0.02 0.01 0.01 0.01 0.02 0.02 0.03 0.03 0.02 0.02 0.02 0.03 0.04 0.04 0.04 0.05 0.05 0.06 0.06 0.04 0.03 0.03 0.03 0.02 0.02 0.02 0.01 0.01 0.01 0.02 0.03 0.02 0.02 0.01 0.01 0.02 0.03
0.01 0.01 0.01 0.01 0.01 0.01 0.01 0.02 0.01 0.01 0.01 0.02 0.03 0.03 0.03 0.02 0.02 0.02 0.03 0.03 0.02 0.02 0.03 0.03 0.04 0.04 0.03 0.03 0.02 0.02 0.02 0.02 0.02 0.01 0.01 0.01 0.02 0.02 0.02 0.02 0.02 0.02 0.02 0.03
MSLP
1011.13 1011.24 1011.33 1011.42 1011.50 1011.60 1011.69 1011.77 1011.83 1011.87 1011.88 1011.87 1011.84 1011.82 1011.81 1011.82 1011.85 1011.90 1011.95 1011.98 1012.00 1012.00 1011.97 1011.92 1011.87 1011.85 1011.86 1011.94 1012.10 1012.34 1012.66 1013.06 1013.52 1014.02 1014.53 1015.05 1015.54 1015.99 1016.40 1016.75 1017.06 1017.33 1017.58 1017.83
1011.67 1011.71 1011.67 1011.56 1011.40 1011.23 1011.09 1010.98 1010.92 1010.92 1010.98 1011.10 1011.26 1011.44 1011.63 1011.81 1011.96 1012.06 1012.12 1012.13 1012.09 1012.01 1011.92 1011.83 1011.76 1011.72 1011.73 1011.81 1011.96 1012.18 1012.47 1012.83 1013.26 1013.74 1014.25 1014.79 1015.32 1015.84 1016.32 1016.75 1017.14 1017.47 1017.75 1018.01
1012.02 1012.01 1011.86 1011.60 1011.27 1010.92 1010.60 1010.35 1010.21 1010.19 1010.29 1010.50 1010.78 1011.10 1011.42 1011.71 1011.93 1012.07 1012.13 1012.11 1012.03 1011.91 1011.79 1011.67 1011.59 1011.55 1011.57 1011.64 1011.77 1011.96 1012.21 1012.52 1012.90 1013.34 1013.84 1014.38 1014.96 1015.54 1016.11 1016.65 1017.12 1017.53 1017.87 1018.16
1012.19 1012.13 1011.91 1011.56 1011.12 1010.66 1010.24 1009.92 1009.73 1009.70 1009.82 1010.07 1010.42 1010.82 1011.20 1011.53 1011.77 1011.91 1011.96 1011.91 1011.81 1011.67 1011.54 1011.43 1011.36 1011.34 1011.37 1011.44 1011.55 1011.70 1011.89 1012.14 1012.46 1012.85 1013.32 1013.87 1014.48 1015.12 1015.78 1016.41 1016.99 1017.49 1017.91 1018.24
1012.18 1012.07 1011.80 1011.41 1010.93 1010.43 1009.99 1009.64 1009.44 1009.41 1009.54 1009.81 1010.17 1010.56 1010.94 1011.25 1011.47 1011.58 1011.59 1011.52 1011.40 1011.27 1011.16 1011.08 1011.05 1011.06 1011.11 1011.19 1011.28 1011.40 1011.54 1011.73 1011.98 1012.32 1012.75 1013.28 1013.91 1014.60 1015.33 1016.05 1016.72 1017.32 1017.82 1018.22
1012.00 1011.84 1011.55 1011.14 1010.68 1010.20 1009.78 1009.46 1009.28 1009.26 1009.39 1009.63 1009.96 1010.30 1010.61 1010.85 1011.00 1011.05 1011.01 1010.91 1010.78 1010.67 1010.59 1010.56 1010.59 1010.65 1010.74 1010.85 1010.95 1011.05 1011.16 1011.29 1011.49 1011.77 1012.17 1012.68 1013.31 1014.03 1014.80 1015.59 1016.34 1017.02 1017.60 1018.07
1011.64 1011.44 1011.14 1010.76 1010.34 1009.93 1009.58 1009.31 1009.17 1009.16 1009.27 1009.47 1009.71 1009.95 1010.15 1010.28 1010.32 1010.28 1010.18 1010.04 1009.91 1009.82 1009.79 1009.82 1009.92 1010.06 1010.21 1010.36 1010.49 1010.60 1010.70 1010.82 1010.98 1011.23 1011.59 1012.08 1012.70 1013.42 1014.22 1015.04 1015.85 1016.59 1017.23 1017.77
1011.13 1010.89 1010.59 1010.26 1009.92 1009.60 1009.33 1009.14 1009.05 1009.04 1009.11 1009.23 1009.37 1009.47 1009.53 1009.51 1009.42 1009.27 1009.09 1008.91 1008.77 1008.70 1008.72 1008.82 1009.00 1009.22 1009.45 1009.67 1009.86 1010.01 1010.14 1010.27 1010.44 1010.67 1011.02 1011.49 1012.10 1012.81 1013.61 1014.44 1015.27 1016.04 1016.73 1017.32
1010.48 1010.22 1009.95 1009.68 1009.42 1009.20 1009.03 1008.91 1008.85 1008.84 1008.85 1008.87 1008.87 1008.82 1008.70 1008.52 1008.28 1008.01 1007.74 1007.52 1007.37 1007.32 1007.38 1007.55 1007.81 1008.11 1008.44 1008.74 1009.02 1009.25 1009.44 1009.62 1009.82 1010.09 1010.44 1010.91 1011.50 1012.20 1012.98 1013.80 1014.63 1015.41 1016.13 1016.75
1009.73 1009.47 1009.23 1009.03 1008.87 1008.75 1008.66 1008.60 1008.56 1008.51 1008.45 1008.35 1008.19 1007.97 1007.67 1007.32 1006.93 1006.54 1006.19 1005.92 1005.75 1005.72 1005.82 1006.05 1006.38 1006.77 1007.18 1007.58 1007.95 1008.28 1008.57 1008.84 1009.11 1009.44 1009.83 1010.32 1010.91 1011.60 1012.36 1013.15 1013.95 1014.73 1015.45 1016.09
1008.92 1008.68 1008.50 1008.38 1008.30 1008.26 1008.24 1008.21 1008.15 1008.05 1007.89 1007.65 1007.33 1006.93 1006.46 1005.94 1005.42 1004.93 1004.50 1004.19 1004.01 1003.99 1004.13 1004.40 1004.79 1005.25 1005.74 1006.24 1006.71 1007.14 1007.54 1007.92 1008.29 1008.70 1009.16 1009.70 1010.31 1010.99 1011.73 1012.50 1013.27 1014.02 1014.73 1015.38
1008.10 1007.90 1007.79 1007.75 1007.75 1007.77 1007.78 1007.75 1007.65 1007.46 1007.18 1006.79 1006.30 1005.73 1005.10 1004.45 1003.82 1003.25 1002.77 1002.44 1002.27 1002.26 1002.42 1002.73 1003.16 1003.67 1004.23 1004.80 1005.36 1005.89 1006.40 1006.89 1007.37 1007.88 1008.43 1009.02 1009.67 1010.37 1011.10 1011.85 1012.60 1013.32 1014.01 1014.67
1007.30 1007.17 1007.14 1007.16 1007.22 1007.28 1007.29 1007.22 1007.04 1006.75 1006.33 1005.79 1005.15 1004.43 1003.67 1002.92 1002.22 1001.60 1001.11 1000.78 1000.63 1000.65 1000.84 1001.17 1001.63 1002.17 1002.76 1003.38 1004.00 1004.61 1005.21 1005.80 1006.39 1007.00 1007.63 1008.30 1009.00 1009.72 1010.46 1011.20 1011.94 1012.65 1013.32 1013.97
1006.56 1006.51 1006.55 1006.64 1006.74 1006.80 1006.77 1006.64 1006.36 1005.94 1005.38 1004.69 1003.91 1003.07 1002.22 1001.41 1000.68 1000.07 999.60 999.31 999.20 999.26 999.47 999.83 1000.30 1000.84 1001.44 1002.08 1002.73 1003.38 1004.04 1004.71 1005.38 1006.08 1006.79 1007.53 1008.28 1009.05 1009.81 1010.56 1011.29 1011.99 1012.66 1013.30
1005.90 1005.94 1006.05 1006.19 1006.29 1006.33 1006.24 1006.01 1005.62 1005.06 1004.36 1003.54 1002.64 1001.72 1000.82 999.99 999.28 998.71 998.30 998.07 998.02 998.13 998.38 998.75 999.22 999.75 1000.34 1000.96 1001.61 1002.27 1002.96 1003.67 1004.40 1005.16 1005.94 1006.73 1007.54 1008.34 1009.13 1009.90 1010.63 1011.34 1012.00 1012.64
1005.34 1005.47 1005.63 1005.79 1005.89 1005.87 1005.71 1005.37 1004.85 1004.16 1003.33 1002.40 1001.41 1000.44 999.52 998.71 998.05 997.55 997.22 997.08 997.10 997.27 997.55 997.94 998.39 998.90 999.45 1000.04 1000.65 1001.30 1001.99 1002.71 1003.46 1004.26 1005.08 1005.92 1006.76 1007.60 1008.42 1009.20 1009.95 1010.65 1011.32 1011.96
1004.90 1005.10 1005.30 1005.46 1005.53 1005.44 1005.19 1004.73 1004.09 1003.28 1002.34 1001.32 1000.28 999.29 998.38 997.61 997.01 996.60 996.36 996.30 996.40 996.62 996.93 997.32 997.76 998.23 998.74 999.27 999.85 1000.46 1001.11 1001.82 1002.58 1003.39 1004.23 1005.09 1005.96 1006.82 1007.65 1008.44 1009.20 1009.91 1010.58 1011.21
1004.59 1004.83 1005.05 1005.19 1005.21 1005.06 1004.71 1004.15 1003.40 1002.49 1001.47 1000.39 999.32 998.32 997.44 996.72 996.18 995.84 995.68 995.69 995.84 996.10 996.43 996.81 997.22 997.65 998.11 998.59 999.12 999.68 1000.31 1001.00 1001.74 1002.54 1003.38 1004.25 1005.12 1005.99 1006.82 1007.62 1008.37 1009.08 1009.74 1010.36
1004.41 1004.67 1004.88 1004.99 1004.96 1004.73 1004.30 1003.66 1002.83 1001.85 1000.78 999.66 998.58 997.59 996.74 996.05 995.56 995.27 995.15 995.20 995.36 995.62 995.94 996.29 996.67 997.06 997.48 997.92 998.40 998.93 999.53 1000.19 1000.92 1001.71 1002.54 1003.40 1004.26 1005.12 1005.94 1006.72 1007.46 1008.15 1008.80 1009.41
1004.33 1004.58 1004.77 1004.85 1004.76 1004.48 1003.98 1003.29 1002.42 1001.41 1000.31 999.19 998.11 997.13 996.30 995.63 995.16 994.87 994.75 994.77 994.91 995.14 995.41 995.72 996.05 996.40 996.78 997.18 997.64 998.16 998.74 999.39 1000.11 1000.89 1001.71 1002.55 1003.39 1004.22 1005.01 1005.77 1006.48 1007.15 1007.77 1008.36
1004.32 1004.55 1004.71 1004.74 1004.61 1004.30 1003.78 1003.06 1002.18 1001.18 1000.09 998.99 997.93 996.96 996.13 995.46 994.96 994.63 994.46 994.42 994.49 994.64 994.84 995.08 995.36 995.66 996.00 996.39 996.84 997.35 997.94 998.59 999.31 1000.08 1000.89 1001.71 1002.52 1003.31 1004.07 1004.79 1005.47 1006.10 1006.69 1007.25
1004.33 1004.53 1004.65 1004.65 1004.50 1004.17 1003.66 1002.96 1002.12 1001.15 1000.11 999.05 998.03 997.08 996.24 995.54 994.99 994.59 994.33 994.18 994.14 994.18 994.28 994.44 994.65 994.90 995.22 995.59 996.04 996.56 997.16 997.83 998.55 999.32 1000.11 1000.90 1001.68 1002.43 1003.15 1003.82 1004.45 1005.04 1005.60 1006.13
1004.31 1004.47 1004.56 1004.54 1004.39 1004.08 1003.60 1002.96 1002.18 1001.29 1000.33 999.34 998.36 997.44 996.60 995.87 995.25 994.76 994.38 994.11 993.94 993.85 993.83 993.90 994.03 994.23 994.52 994.88 995.34 995.87 996.48 997.16 997.88 998.64 999.41 1000.17 1000.90 1001.60 1002.26 1002.88 1003.46 1004.01 1004.53 1005.03
1004.23 1004.35 1004.41 1004.39 1004.25 1003.97 1003.56 1003.00 1002.32 1001.54 1000.68 999.79 998.88 998.00 997.17 996.41 995.73 995.15 994.66 994.26 993.96 993.74 993.61 993.58 993.63 993.78 994.03 994.38 994.83 995.37 995.98 996.65 997.36 998.09 998.82 999.53 1000.21 1000.85 1001.44 1002.00 1002.52 1003.02 1003.51 1003.98
1004.06 1004.14 1004.19 1004.17 1004.06 1003.84 1003.50 1003.05 1002.49 1001.84 1001.10 1000.32 999.51 998.69 997.90 997.13 996.42 995.77 995.19 994.69 994.27 993.95 993.72 993.59 993.58 993.67 993.88 994.20 994.63 995.15 995.73 996.38 997.05 997.73 998.39 999.03 999.64 1000.20 1000.72 1001.20 1001.66 1002.10 1002.54 1002.98
1003.82 1003.88 1003.91 1003.90 1003.82 1003.66 1003.42 1003.07 1002.64 1002.12 1001.53 1000.87 1000.17 999.45 998.71 997.98 997.27 996.60 995.97 995.40 994.91 994.51 994.21 994.01 993.93 993.98 994.14 994.42 994.80 995.27 995.81 996.39 996.98 997.58 998.16 998.70 999.20 999.67 1000.09 1000.49 1000.88 1001.26 1001.64 1002.04
1003.56 1003.59 1003.61 1003.61 1003.57 1003.47 1003.30 1003.06 1002.75 1002.37 1001.91 1001.40 1000.82 1000.21 999.56 998.90 998.23 997.58 996.95 996.37 995.85 995.41 995.07 994.83 994.71 994.71 994.82 995.05 995.37 995.76 996.21 996.70 997.19 997.67 998.13 998.56 998.94 999.28 999.60 999.90 1000.20 1000.50 1000.82 1001.16
Thickness
5683 5690 5693 5691 5692 5694 5688 5683 5675 5676 5678 5681 5685 5687 5689 5691 5691 5692 5691 5690 5690 5689 5688 5688 5688 5687 5687 5686 5685 5685 5682 5680 5678 5677 5675 5674 5673 5672 5671 5670 5669 5667 5666 5665
5672 5683 5683 5679 5681 5684 5685 5684 5679 5677 5673 5681 5682 5682 5681 5681 5682 5681 5681 5682 5682 5682 5682 5681 5681 5681 5680 5679 5679 5678 5676 5673 5672 5670 5669 5668 5667 5666 5665 5664 5663 5662 5661 5660
5652 5667 5669 5656 5666 5669 5670 5673 5672 5665 5666 5672 5671 5672 5672 5672 5672 5673 5674 5675 5675 5675 5676 5675 5674 5675 5673 5672 5672 5671 5669 5667 5666 5664 5662 5662 5662 5660 5658 5657 5656 5655 5654 5654
5642 5649 5637 5646 5667 5668 5663 5662 5665 5665 5665 5666 5666 5666 5668 5668 5666 5665 5666 5667 5668 5668 5667 5668 5668 5668 5668 5667 5665 5664 5662 5661 5660 5658 5657 5655 5654 5653 5652 5651 5650 5649 5649 5649
5630 5629 5632 5644 5656 5656 5651 5647 5655 5656 5657 5659 5660 5660 5659 5663 5662 5660 5659 5660 5662 5663 5661 5661 5662 5662 5661 5660 5659 5657 5656 5655 5654 5652 5650 5649 5647 5646 5646 5645 5644 5644 5644 5643
5625 5623 5620 5629 5649 5658 5649 5633 5645 5648 5648 5649 5651 5642 5643 5652 5654 5653 5653 5653 5655 5656 5656 5656 5657 5656 5655 5653 5651 5650 5650 5650 5649 5648 5645 5644 5642 5641 5641 5640 5639 5638 5638 5638
5614 5612 5615 5631 5643 5647 5626 5622 5636 5641 5641 5641 5639 5638 5642 5646 5646 5646 5646 5648 5649 5650 5649 5650 5651 5649 5648 5647 5645 5645 5645 5644 5644 5642 5640 5639 5637 5636 5634 5633 5633 5632 5631 5631
5604 5600 5603 5627 5631 5622 5619 5627 5630 5633 5635 5635 5635 5637 5637 5639 5639 5639 5639 5640 5641 5641 5642 5643 5644 5642 5640 5640 5640 5640 5640 5639 5637 5636 5636 5635 5631 5630 5628 5627 5625 5625 5623 5623
5600 5600 5611 5619 5620 5621 5622 5621 5623 5625 5628 5628 5627 5628 5628 5629 5630 5631 5632 5632 5633 5632 5633 5635 5636 5636 5634 5634 5635 5634 5633 5632 5631 5630 5630 5629 5626 5623 5621 5620 5618 5617 5617 5616
5597 5602 5609 5612 5615 5617 5619 5619 5621 5622 5623 5622 5620 5620 5619 5620 5621 5622 5623 5624 5624 5624 5624 5625 5627 5628 5629 5629 5629 5627 5626 5625 5624 5623 5622 5622 5620 5618 5616 5614 5613 5611 5611 5611
5592 5598 5602 5606 5609 5611 5614 5616 5616 5616 5617 5615 5614 5613 5612 5611 5612 5613 5614 5614 5615 5615 5615 5617 5619 5620 5622 5622 5622 5620 5619 5618 5618 5617 5616 5615 5614 5614 5613 5612 5611 5609 5608 5607
5586 5594 5593 5597 5604 5608 5607 5608 5609 5609 5609 5609 5608 5607 5606 5605 5604 5604 5605 5605 5605 5607 5608 5610 5611 5612 5614 5615 5615 5614 5613 5612 5612 5611 5610 5609 5608 5607 5608 5608 5608 5607 5607 5605
5593 5597 5596 5599 5601 5603 5602 5602 5604 5603 5603 5601 5601 5600 5599 5598 5597 5597 5597 5598 5598 5599 5601 5602 5604 5605 5607 5608 5608 5607 5606 5606 5605 5605 5605 5603 5603 5601 5600 5602 5603 5603 5603 5602
5593 5593 5591 5593 5594 5596 5597 5597 5598 5598 5597 5596 5595 5594 5592 5591 5590 5590 5590 5591 5592 5593 5594 5595 5596 5598 5600 5601 5601 5601 5601 5601 5600 5600 5599 5599 5598 5597 5596 5596 5596 5597 5598 5598
5588 5588 5586 5588 5590 5591 5591 5591 5590 5589 5589 5588 5588 5587 5585 5584 5583 5584 5585 5586 5586 5586 5586 5587 5588 5590 5592 5593 5593 5594 5595 5595 5595 5595 5595 5594 5594 5592 5591 5591 5592 5592 5593 5594
5583 5583 5584 5583 5584 5584 5584 5584 5582 5582 5582 5582 5581 5580 5580 5578 5577 5577 5578 5578 5577 5577 5578 5579 5580 5582 5584 5586 5586 5587 5589 5591 5591 5590 5590 5589 5589 5588 5587 5587 5587 5588 5589 5589
5575 5573 5574 5575 5577 5578 5578 5578 5578 5578 5578 5577 5577 5576 5574 5572 5570 5569 5570 5571 5571 5571 5571 5571 5572 5575 5576 5578 5579 5580 5582 5584 5586 5585 5585 5585 5585 5584 5584 5585 5585 5585 5586 5587
5574 5573 5572 5572 5572 5572 5573 5574 5574 5574 5574 5574 5573 5571 5569 5567 5565 5564 5564 5564 5564 5565 5565 5566 5567 5569 5570 5572 5573 5574 5576 5577 5579 5579 5580 5580 5580 5581 5582 5582 5583 5583 5583 5584
5571 5570 5569 5569 5569 5568 5568 5568 5568 5568 5569 5569 5568 5566 5564 5563 5561 5560 5559 5558 5558 5558 5559 5561 5562 5563 5564 5566 5568 5568 5570 5571 5572 5574 5575 5576 5576 5576 5577 5578 5579 5580 5581 5580
5566 5566 5566 5565 5565 5564 5563 5563 5564 5563 5563 5563 5562 5560 5558 5557 5556 5555 5554 5553 5553 5554 5556 5556 5557 5558 5559 5561 5563 5563 5564 5566 5567 5568 5569 5569 5570 5571 5572 5573 5575 5576 5576 5577
5560 5561 5561 5560 5560 5560 5560 5560 5559 5558 5558 5558 5556 5555 5553 5551 5550 5549 5548 5547 5549 5550 5551 5552 5553 5554 5555 5556 5557 5558 5559 5560 5561 5563 5564 5564 5564 5566 5567 5568 5569 5570 5571 5572
5555 5555 5555 5555 5554 5554 5555 5555 5555 5554 5553 5552 5551 5550 5547 5546 5545 5544 5544 5543 5545 5546 5546 5547 5548 5550 5551 5552 5553 5554 5555 5556 5556 5557 5559 5559 5559 5560 5561 5562 5563 5564 5565 5566
5550 5550 5549 5549 5549 5549 5550 5551 5550 5549 5548 5547 5546 5544 5542 5541 5540 5538 5538 5540 5542 5542 5542 5543 5544 5546 5546 5548 5549 5550 5551 5552 5552 5553 5553 5554 5554 5555 5556 5556 5557 5559 5560 5561
5547 5546 5545 5545 5545 5544 5543 5544 5545 5544 5544 5542 5541 5540 5538 5537 5536 5535 5535 5537 5539 5539 5539 5539 5540 5541 5542 5543 5544 5545 5546 5547 5547 5548 5548 5549 5549 5549 5550 5550 5551 5553 5554 5555
5544 5543 5541 5540 5539 5538 5538 5538 5539 5538 5537 5536 5536 5536 5535 5534 5532 5532 5533 5534 5535 5536 5535 5536 5536 5536 5537 5538 5539 5540 5541 5542 5542 5542 5542 5542 5543 5544 5544 5545 5546 5546 5547 5548
5540 5538 5537 5537 5536 5535 5534 5533 5532 5531 5531 5530 5530 5530 5530 5530 5530 5530 5530 5531 5531 5531 5530 5530 5530 5531 5532 5533 5534 5535 5536 5537 5537 5537 5537 5537 5538 5538 5539 5540 5540 5540 5541 5542
5535 5535 5533 5532 5532 5532 5531 5530 5528 5527 5526 5526 5525 5526 5526 5526 5525 5525 5526 5526 5526 5526 5526 5526 5526 5526 5527 5528 5528 5530 5531 5532 5532 5532 5532 5532 5532 5533 5533 5534 5534 5534 5535 5536